User: anonymous   Login
Location: Elk Forest
(39.5314°N, 75.8738°W)
Time: 06:27:47
(UTC-04:00)
Language:

Resurs 01 Rocket - Orbit

View from above orbital plane
View from above orbital plane
View from above satellite
View from above satellite

Ground track
Ground track

The orbit data is extracted from the following two-line orbital elements,

1 23343U 94074B   15216.65236925  .00000127  00000-0  25968-4 0  9996
2 23343 098.2180 232.9690 0008304 098.3449 013.2658 14.76553795116104
Epoch (UTC): 04 August 2015 15:39:24
Eccentricity: 0.0008304
inclination: 98.2180°
perigee height: 634 km
apogee height: 646 km
right ascension of ascending node: 232.9690°
argument of perigee: 98.3449°
revolutions per day: 14.76553795
mean anomaly at epoch: 13.2658°
orbit number at epoch: 11610

The dashed part of the orbit path shows where the satellite is in the earth's shadow,  

DLR